Tracking 31027 objects as of 19-Jul-2025
HD Live streaming from Space Station
objects crossing your sky now

STARLINK-30534

Track STARLINK-30534 now!
10-day predictions
STARLINK-30534 is classified as:


NORAD ID: 57992
Int'l Code: 2023-153B
Perigee: 565.1 km
Apogee: 567.3 km
Inclination: 43.0 °
Period: 95.8 minutes
Semi major axis: 6937 km
RCS: Unknown
Launch date: October 5, 2023
Source: United States (US)
Launch site: AIR FORCE EASTERN TEST RANGE (AFETR)
Your satellite tracking list
FENGYUN 1C DEB
Track 1 satellite(s)




NASA's NSSDC Master Catalog

Two Line Element Set (TLE):
1 57992U 23153B   25199.57486302 -.00000496  00000-0 -21603-4 0  9994
2 57992  43.0028 261.3614 0001578 270.2313  89.8349 15.02537134 99553
Source of the keplerian elements: AFSPC